Time,TemperatureF,DewpointF,PressureIn,WindDirection,WindDirectionDegrees,WindSpeedMPH,WindSpeedGustMPH,Humidity,HourlyPrecipIn,Conditions,Clouds,dailyrainin,SoftwareType,DateUTC
2013-05-01 00:01:00,42.0,35.3,30.34,SSE,153,0.0,0.0,77,0.00,,,0.00,Wunderground v.1.15,2013-05-01 04:01:00,
2013-05-01 00:05:00,41.9,36.0,30.34,SSE,153,0.0,-999.0,78,-99.99,,,0.00,weatherlink.com 1.10,2013-05-01 04:05:00,
2013-05-01 00:10:00,41.8,35.1,30.34,SSE,153,0.0,0.0,77,0.00,,,0.00,Wunderground v.1.15,2013-05-01 04:10:00,
2013-05-01 00:15:00,41.8,35.4,30.34,SSE,153,0.0,0.0,78,0.00,,,0.00,Wunderground v.1.15,2013-05-01 04:15:00,
2013-05-01 00:20:00,41.7,35.7,30.34,SSE,153,0.0,0.0,79,0.00,,,0.00,Wunderground v.1.15,2013-05-01 04:20:00,
2013-05-01 00:26:00,41.5,35.2,30.34,SSE,153,0.0,0.0,78,0.00,,,0.00,Wunderground v.1.15,2013-05-01 04:26:00,
2013-05-01 00:32:00,41.4,35.0,30.34,SSE,153,0.0,-999.0,79,-99.99,,,0.00,weatherlink.com 1.10,2013-05-01 04:32:00,
2013-05-01 00:37:00,41.2,35.2,30.34,SSE,153,0.0,0.0,79,0.00,,,0.00,Wunderground v.1.15,2013-05-01 04:37:00,
2013-05-01 00:42:00,41.2,35.2,30.34,SSE,153,0.0,0.0,79,0.00,,,0.00,Wunderground v.1.15,2013-05-01 04:42:00,
2013-05-01 00:47:00,41.2,35.5,30.34,SSE,153,0.0,0.0,80,0.00,,,0.00,Wunderground v.1.15,2013-05-01 04:47:00,
2013-05-01 00:52:00,41.1,35.4,30.34,SSE,153,0.0,0.0,80,0.00,,,0.00,Wunderground v.1.15,2013-05-01 04:52:00,
2013-05-01 00:57:00,40.9,35.2,30.34,SSE,153,0.0,0.0,80,0.00,,,0.00,Wunderground v.1.15,2013-05-01 04:57:00,
2013-05-01 01:03:00,40.7,35.0,30.35,SSE,153,0.0,0.0,80,0.00,,,0.00,Wunderground v.1.15,2013-05-01 05:03:00,
2013-05-01 01:08:00,40.5,34.8,30.35,SSE,153,0.0,0.0,80,0.00,,,0.00,Wunderground v.1.15,2013-05-01 05:08:00,
2013-05-01 01:14:00,40.3,34.9,30.35,SSE,153,0.0,0.0,81,0.00,,,0.00,Wunderground v.1.15,2013-05-01 05:14:00,
2013-05-01 01:19:00,40.2,34.8,30.34,SSE,153,0.0,0.0,81,0.00,,,0.00,Wunderground v.1.15,2013-05-01 05:19:00,
2013-05-01 01:25:00,39.9,34.5,30.34,SSE,153,0.0,0.0,81,0.00,,,0.00,Wunderground v.1.15,2013-05-01 05:25:00,
2013-05-01 01:30:00,39.8,34.8,30.34,SSE,153,0.0,0.0,82,0.00,,,0.00,Wunderground v.1.15,2013-05-01 05:30:00,
2013-05-01 01:35:00,39.7,34.7,30.35,SSE,153,0.0,0.0,82,0.00,,,0.00,Wunderground v.1.15,2013-05-01 05:35:00,
2013-05-01 01:41:00,39.5,34.5,30.35,SSE,153,0.0,0.0,82,0.00,,,0.00,Wunderground v.1.15,2013-05-01 05:41:00,
2013-05-01 01:46:00,39.4,34.7,30.35,SSE,153,0.0,0.0,83,0.00,,,0.00,Wunderground v.1.15,2013-05-01 05:46:00,
2013-05-01 01:52:00,39.3,34.9,30.34,SSE,153,0.0,0.0,84,0.00,,,0.00,Wunderground v.1.15,2013-05-01 05:52:00,
2013-05-01 01:57:00,39.2,34.5,30.35,SSE,153,0.0,0.0,83,0.00,,,0.00,Wunderground v.1.15,2013-05-01 05:57:00,
2013-05-01 02:02:00,39.1,34.7,30.35,SSE,153,0.0,0.0,84,0.00,,,0.00,Wunderground v.1.15,2013-05-01 06:02:00,
2013-05-01 02:07:00,39.0,34.6,30.35,SSE,153,0.0,0.0,84,0.00,,,0.00,Wunderground v.1.15,2013-05-01 06:07:00,
2013-05-01 02:12:00,38.8,34.4,30.35,SSE,153,0.0,0.0,84,0.00,,,0.00,Wunderground v.1.15,2013-05-01 06:12:00,
2013-05-01 02:17:00,38.8,34.7,30.35,SSE,153,0.0,0.0,85,0.00,,,0.00,Wunderground v.1.15,2013-05-01 06:17:00,
2013-05-01 02:22:00,38.7,34.3,30.35,SSE,153,0.0,0.0,84,0.00,,,0.00,Wunderground v.1.15,2013-05-01 06:22:00,
2013-05-01 02:27:00,38.6,34.2,30.35,SSE,153,0.0,0.0,84,0.00,,,0.00,Wunderground v.1.15,2013-05-01 06:27:00,
2013-05-01 02:32:00,38.5,34.4,30.35,SSE,153,0.0,0.0,85,0.00,,,0.00,Wunderground v.1.15,2013-05-01 06:32:00,
2013-05-01 02:37:00,38.4,34.3,30.35,SSE,153,0.0,0.0,85,0.00,,,0.00,Wunderground v.1.15,2013-05-01 06:37:00,
2013-05-01 02:42:00,38.3,34.2,30.35,SSE,153,0.0,0.0,85,0.00,,,0.00,Wunderground v.1.15,2013-05-01 06:42:00,
2013-05-01 02:47:00,38.2,34.1,30.35,SSE,153,0.0,0.0,85,0.00,,,0.00,Wunderground v.1.15,2013-05-01 06:47:00,
2013-05-01 02:52:00,38.2,34.1,30.35,SSE,153,0.0,0.0,85,0.00,,,0.00,Wunderground v.1.15,2013-05-01 06:52:00,
2013-05-01 02:57:00,38.1,34.3,30.36,SSE,153,0.0,0.0,86,0.00,,,0.00,Wunderground v.1.15,2013-05-01 06:57:00,
2013-05-01 03:02:00,38.1,34.3,30.36,SSE,153,0.0,0.0,86,0.00,,,0.00,Wunderground v.1.15,2013-05-01 07:02:00,
2013-05-01 03:07:00,38.0,33.9,30.36,SSE,153,0.0,0.0,85,0.00,,,0.00,Wunderground v.1.15,2013-05-01 07:07:00,
2013-05-01 03:12:00,37.9,33.8,30.36,SSE,153,0.0,0.0,85,0.00,,,0.00,Wunderground v.1.15,2013-05-01 07:12:00,
2013-05-01 03:17:00,37.8,33.7,30.36,SSE,153,0.0,0.0,85,0.00,,,0.00,Wunderground v.1.15,2013-05-01 07:17:00,
2013-05-01 03:22:00,37.7,33.9,30.37,SSE,153,0.0,0.0,86,0.00,,,0.00,Wunderground v.1.15,2013-05-01 07:22:00,
2013-05-01 03:27:00,37.6,33.8,30.37,SSE,153,0.0,0.0,86,0.00,,,0.00,Wunderground v.1.15,2013-05-01 07:27:00,
2013-05-01 03:32:00,37.6,33.8,30.36,SSE,153,0.0,0.0,86,0.00,,,0.00,Wunderground v.1.15,2013-05-01 07:32:00,
2013-05-01 03:37:00,37.6,33.8,30.36,SSE,153,0.0,0.0,86,0.00,,,0.00,Wunderground v.1.15,2013-05-01 07:37:00,
2013-05-01 03:42:00,37.5,33.4,30.36,SSE,153,0.0,0.0,85,0.00,,,0.00,Wunderground v.1.15,2013-05-01 07:42:00,
2013-05-01 03:47:00,37.5,33.7,30.36,SSE,153,0.0,0.0,86,0.00,,,0.00,Wunderground v.1.15,2013-05-01 07:47:00,
2013-05-01 03:52:00,37.5,32.8,30.36,SSE,153,0.0,0.0,83,0.00,,,0.00,Wunderground v.1.15,2013-05-01 07:52:00,
2013-05-01 03:57:00,37.7,33.6,30.37,SSE,153,0.0,0.0,85,0.00,,,0.00,Wunderground v.1.15,2013-05-01 07:57:00,
2013-05-01 04:02:00,37.8,33.7,30.37,SSE,153,0.0,0.0,85,0.00,,,0.00,Wunderground v.1.15,2013-05-01 08:02:00,
2013-05-01 04:07:00,37.7,33.3,30.37,SSE,153,0.0,0.0,84,0.00,,,0.00,Wunderground v.1.15,2013-05-01 08:07:00,
2013-05-01 04:12:00,37.7,33.3,30.37,SSE,153,0.0,0.0,84,0.00,,,0.00,Wunderground v.1.15,2013-05-01 08:12:00,
2013-05-01 04:17:00,37.7,33.3,30.37,SSE,153,0.0,0.0,84,0.00,,,0.00,Wunderground v.1.15,2013-05-01 08:17:00,
2013-05-01 04:22:00,37.7,33.0,30.38,SSE,153,0.0,1.0,83,0.00,,,0.00,Wunderground v.1.15,2013-05-01 08:22:00,
2013-05-01 04:27:00,37.7,33.0,30.38,SSE,153,0.0,1.0,83,0.00,,,0.00,Wunderground v.1.15,2013-05-01 08:27:00,
2013-05-01 04:33:00,37.7,33.0,30.38,SSE,153,0.0,1.0,83,0.00,,,0.00,Wunderground v.1.15,2013-05-01 08:33:00,
2013-05-01 04:38:00,37.6,32.9,30.38,SSE,153,1.0,1.0,83,0.00,,,0.00,Wunderground v.1.15,2013-05-01 08:38:00,
2013-05-01 04:43:00,37.6,33.2,30.38,SSE,153,0.0,1.0,84,0.00,,,0.00,Wunderground v.1.15,2013-05-01 08:43:00,
2013-05-01 04:48:00,37.5,33.1,30.38,SSE,153,0.0,1.0,84,0.00,,,0.00,Wunderground v.1.15,2013-05-01 08:48:00,
2013-05-01 04:53:00,37.4,33.0,30.38,SSE,153,0.0,1.0,84,0.00,,,0.00,Wunderground v.1.15,2013-05-01 08:53:00,
2013-05-01 04:58:00,37.3,32.6,30.38,SSE,153,0.0,2.0,83,0.00,,,0.00,Wunderground v.1.15,2013-05-01 08:58:00,
2013-05-01 05:03:00,37.1,32.7,30.38,North,360,0.0,4.0,84,0.00,,,0.00,Wunderground v.1.15,2013-05-01 09:03:00,
2013-05-01 05:08:00,37.1,32.7,30.38,North,360,1.0,4.0,84,0.00,,,0.00,Wunderground v.1.15,2013-05-01 09:08:00,
2013-05-01 05:13:00,37.1,32.7,30.39,North,360,0.0,2.0,84,0.00,,,0.00,Wunderground v.1.15,2013-05-01 09:13:00,
2013-05-01 05:18:00,37.1,32.7,30.39,North,5,1.0,2.0,84,0.00,,,0.00,Wunderground v.1.15,2013-05-01 09:18:00,
2013-05-01 05:23:00,37.1,32.7,30.39,NNW,339,0.0,3.0,84,0.00,,,0.00,Wunderground v.1.15,2013-05-01 09:23:00,
2013-05-01 05:28:00,37.0,32.6,30.39,NNW,339,1.0,3.0,84,0.00,,,0.00,Wunderground v.1.15,2013-05-01 09:28:00,
2013-05-01 05:33:00,37.0,32.9,30.39,NNW,339,0.0,2.0,85,0.00,,,0.00,Wunderground v.1.15,2013-05-01 09:33:00,
2013-05-01 05:38:00,37.0,32.9,30.39,NNW,339,0.0,2.0,85,0.00,,,0.00,Wunderground v.1.15,2013-05-01 09:38:00,
2013-05-01 05:43:00,37.0,32.9,30.39,NNW,339,0.0,1.0,85,0.00,,,0.00,Wunderground v.1.15,2013-05-01 09:43:00,
2013-05-01 05:48:00,37.0,32.9,30.39,NNW,339,0.0,1.0,85,0.00,,,0.00,Wunderground v.1.15,2013-05-01 09:48:00,
2013-05-01 05:53:00,37.0,32.9,30.40,NNW,339,0.0,0.0,85,0.00,,,0.00,Wunderground v.1.15,2013-05-01 09:53:00,
2013-05-01 05:58:00,37.0,32.9,30.40,NNW,339,1.0,1.0,85,0.00,,,0.00,Wunderground v.1.15,2013-05-01 09:58:00,
2013-05-01 06:03:00,37.0,32.9,30.40,NNW,339,0.0,1.0,85,0.00,,,0.00,Wunderground v.1.15,2013-05-01 10:03:00,
2013-05-01 06:08:00,37.0,32.9,30.40,NNW,339,0.0,1.0,85,0.00,,,0.00,Wunderground v.1.15,2013-05-01 10:08:00,
2013-05-01 06:14:00,37.1,32.7,30.41,NNW,339,0.0,0.0,84,0.00,,,0.00,Wunderground v.1.15,2013-05-01 10:14:00,
2013-05-01 06:19:00,37.3,32.9,30.41,NNW,339,0.0,1.0,84,0.00,,,0.00,Wunderground v.1.15,2013-05-01 10:19:00,
2013-05-01 06:24:00,37.4,33.0,30.41,NNW,339,0.0,2.0,84,0.00,,,0.00,Wunderground v.1.15,2013-05-01 10:24:00,
2013-05-01 06:29:00,37.5,33.4,30.41,NNW,339,0.0,2.0,85,0.00,,,0.00,Wunderground v.1.15,2013-05-01 10:29:00,
2013-05-01 06:34:00,37.6,33.5,30.41,NNW,339,1.0,1.0,85,0.00,,,0.00,Wunderground v.1.15,2013-05-01 10:34:00,
2013-05-01 06:39:00,37.8,33.7,30.41,NNW,339,1.0,1.0,85,0.00,,,0.00,Wunderground v.1.15,2013-05-01 10:39:00,
2013-05-01 06:44:00,38.0,33.9,30.41,NNW,339,0.0,0.0,85,0.00,,,0.00,Wunderground v.1.15,2013-05-01 10:44:00,
2013-05-01 06:49:00,38.3,34.5,30.41,NNW,339,0.0,0.0,86,0.00,,,0.00,Wunderground v.1.15,2013-05-01 10:49:00,
2013-05-01 06:54:00,38.5,34.4,30.41,NNW,342,0.0,3.0,85,0.00,,,0.00,Wunderground v.1.15,2013-05-01 10:54:00,
2013-05-01 06:59:00,38.9,34.8,30.42,NNW,342,0.0,3.0,85,0.00,,,0.00,Wunderground v.1.15,2013-05-01 10:59:00,
2013-05-01 07:04:00,39.3,35.2,30.42,NNE,13,0.0,2.0,85,0.00,,,0.00,Wunderground v.1.15,2013-05-01 11:04:00,
2013-05-01 07:09:00,39.7,35.6,30.42,NNE,33,0.0,2.0,85,0.00,,,0.00,Wunderground v.1.15,2013-05-01 11:09:00,
2013-05-01 07:14:00,40.2,35.1,30.42,NNE,30,0.0,3.0,82,0.00,,,0.00,Wunderground v.1.15,2013-05-01 11:14:00,
2013-05-01 07:19:00,40.7,35.6,30.42,NNE,25,0.0,4.0,82,0.00,,,0.00,Wunderground v.1.15,2013-05-01 11:19:00,
2013-05-01 07:24:00,41.5,35.8,30.42,NNE,25,0.0,1.0,80,0.00,,,0.00,Wunderground v.1.15,2013-05-01 11:24:00,
2013-05-01 07:29:00,42.3,35.6,30.42,NE,40,4.0,5.0,77,0.00,,,0.00,Wunderground v.1.15,2013-05-01 11:29:00,
2013-05-01 07:34:00,44.0,36.6,30.42,NNE,13,2.0,4.0,75,0.00,,,0.00,Wunderground v.1.15,2013-05-01 11:34:00,
2013-05-01 07:39:00,45.5,36.6,30.42,NNE,17,2.0,4.0,71,0.00,,,0.00,Wunderground v.1.15,2013-05-01 11:39:00,
2013-05-01 07:44:00,46.9,37.3,30.43,North,360,3.0,5.0,69,0.00,,,0.00,Wunderground v.1.15,2013-05-01 11:44:00,
2013-05-01 07:49:00,48.1,38.0,30.42,NNE,24,1.0,5.0,68,0.00,,,0.00,Wunderground v.1.15,2013-05-01 11:49:00,
2013-05-01 07:54:00,49.2,38.7,30.43,North,360,5.0,5.0,67,0.00,,,0.00,Wunderground v.1.15,2013-05-01 11:54:00,
2013-05-01 07:59:00,50.2,39.7,30.42,North,360,2.0,5.0,67,0.00,,,0.00,Wunderground v.1.15,2013-05-01 11:59:00,
2013-05-01 08:04:00,51.1,40.9,30.43,ESE,113,0.0,5.0,68,0.00,,,0.00,Wunderground v.1.15,2013-05-01 12:04:00,
2013-05-01 08:09:00,51.8,41.2,30.43,ESE,121,4.0,5.0,67,0.00,,,0.00,Wunderground v.1.15,2013-05-01 12:09:00,
2013-05-01 08:14:00,52.6,41.9,30.43,North,360,1.0,3.0,67,0.00,,,0.00,Wunderground v.1.15,2013-05-01 12:14:00,
2013-05-01 08:19:00,53.3,43.0,30.43,North,5,0.0,4.0,68,0.00,,,0.00,Wunderground v.1.15,2013-05-01 12:19:00,
2013-05-01 08:24:00,53.9,42.8,30.43,North,9,0.0,3.0,66,0.00,,,0.00,Wunderground v.1.15,2013-05-01 12:24:00,
2013-05-01 08:29:00,54.5,43.4,30.43,ESE,116,1.0,6.0,66,0.00,,,0.00,Wunderground v.1.15,2013-05-01 12:29:00,
2013-05-01 08:34:00,55.0,43.8,30.43,NNE,31,1.0,4.0,66,0.00,,,0.00,Wunderground v.1.15,2013-05-01 12:34:00,
2013-05-01 08:39:00,55.4,43.8,30.44,SE,138,1.0,4.0,65,0.00,,,0.00,Wunderground v.1.15,2013-05-01 12:39:00,
2013-05-01 08:44:00,55.9,44.3,30.43,NE,38,4.0,5.0,65,0.00,,,0.00,Wunderground v.1.15,2013-05-01 12:44:00,
2013-05-01 08:49:00,56.4,44.8,30.43,NE,46,1.0,5.0,65,0.00,,,0.00,Wunderground v.1.15,2013-05-01 12:49:00,
2013-05-01 08:54:00,57.0,44.9,30.43,NE,49,2.0,5.0,64,0.00,,,0.00,Wunderground v.1.15,2013-05-01 12:54:00,
2013-05-01 08:59:00,57.7,45.6,30.43,ENE,65,3.0,5.0,64,0.00,,,0.00,Wunderground v.1.15,2013-05-01 12:59:00,
2013-05-01 09:04:00,58.3,45.8,30.43,NNE,21,1.0,3.0,63,0.00,,,0.00,Wunderground v.1.15,2013-05-01 13:04:00,
2013-05-01 09:09:00,58.9,45.9,30.43,NE,52,0.0,4.0,62,0.00,,,0.00,Wunderground v.1.15,2013-05-01 13:09:00,
2013-05-01 09:15:00,59.4,45.5,30.43,ENE,71,0.0,6.0,60,0.00,,,0.00,Wunderground v.1.15,2013-05-01 13:15:00,
2013-05-01 09:20:00,59.6,45.2,30.42,East,92,3.0,3.0,59,0.00,,,0.00,Wunderground v.1.15,2013-05-01 13:20:00,
2013-05-01 09:25:00,60.1,45.3,30.43,ESE,106,0.0,6.0,58,0.00,,,0.00,Wunderground v.1.15,2013-05-01 13:25:00,
2013-05-01 09:30:00,60.5,44.2,30.43,East,80,1.0,2.0,55,0.00,,,0.00,Wunderground v.1.15,2013-05-01 13:30:00,
2013-05-01 09:35:00,61.1,44.3,30.43,ENE,57,5.0,5.0,54,0.00,,,0.00,Wunderground v.1.15,2013-05-01 13:35:00,
2013-05-01 09:40:00,61.6,44.8,30.43,ENE,58,0.0,2.0,54,0.00,,,0.00,Wunderground v.1.15,2013-05-01 13:40:00,
2013-05-01 09:45:00,61.8,45.0,30.43,East,99,0.0,6.0,54,0.00,,,0.00,Wunderground v.1.15,2013-05-01 13:45:00,
2013-05-01 09:50:00,61.8,45.5,30.43,NNE,23,4.0,4.0,55,0.00,,,0.00,Wunderground v.1.15,2013-05-01 13:50:00,
2013-05-01 09:55:00,62.3,44.9,30.43,North,351,2.0,7.0,53,0.00,,,0.00,Wunderground v.1.15,2013-05-01 13:55:00,
2013-05-01 10:00:00,62.9,45.5,30.43,ESE,117,3.0,5.0,53,0.00,,,0.00,Wunderground v.1.15,2013-05-01 14:00:00,
2013-05-01 10:05:00,63.2,45.8,30.43,SE,140,3.0,6.0,53,0.00,,,0.00,Wunderground v.1.15,2013-05-01 14:05:00,
2013-05-01 10:10:00,63.2,45.8,30.44,ENE,76,0.0,3.0,53,0.00,,,0.00,Wunderground v.1.15,2013-05-01 14:10:00,
2013-05-01 10:15:00,63.4,48.4,30.44,SSW,198,3.0,5.0,58,0.00,,,0.00,Wunderground v.1.15,2013-05-01 14:15:00,
2013-05-01 10:20:00,63.5,48.0,30.44,SE,146,4.0,4.0,57,0.00,,,0.00,Wunderground v.1.15,2013-05-01 14:20:00,
2013-05-01 10:25:00,63.8,47.8,30.44,SSE,155,3.0,7.0,56,0.00,,,0.00,Wunderground v.1.15,2013-05-01 14:25:00,
2013-05-01 10:30:00,63.7,48.2,30.44,South,178,4.0,5.0,57,0.00,,,0.00,Wunderground v.1.15,2013-05-01 14:30:00,
2013-05-01 10:35:00,63.3,48.7,30.45,South,186,6.0,8.0,59,0.00,,,0.00,Wunderground v.1.15,2013-05-01 14:35:00,
2013-05-01 10:40:00,62.7,48.6,30.44,SE,140,5.0,5.0,60,0.00,,,0.00,Wunderground v.1.15,2013-05-01 14:40:00,
2013-05-01 10:45:00,62.4,48.3,30.44,SE,144,4.0,6.0,60,0.00,,,0.00,Wunderground v.1.15,2013-05-01 14:45:00,
2013-05-01 10:50:00,62.1,48.5,30.45,SSE,162,3.0,5.0,61,0.00,,,0.00,Wunderground v.1.15,2013-05-01 14:50:00,
2013-05-01 10:55:00,62.0,48.4,30.45,South,174,4.0,9.0,61,0.00,,,0.00,Wunderground v.1.15,2013-05-01 14:55:00,
2013-05-01 11:00:00,61.5,47.9,30.45,SE,142,6.0,8.0,61,0.00,,,0.00,Wunderground v.1.15,2013-05-01 15:00:00,
2013-05-01 11:05:00,60.7,47.6,30.45,South,180,5.0,8.0,62,0.00,,,0.00,Wunderground v.1.15,2013-05-01 15:05:00,
2013-05-01 11:10:00,60.2,48.0,30.45,SE,145,5.0,6.0,64,0.00,,,0.00,Wunderground v.1.15,2013-05-01 15:10:00,
2013-05-01 11:15:00,60.0,48.2,30.45,South,189,5.0,7.0,65,0.00,,,0.00,Wunderground v.1.15,2013-05-01 15:15:00,
2013-05-01 11:20:00,60.0,48.2,30.45,South,176,5.0,5.0,65,0.00,,,0.00,Wunderground v.1.15,2013-05-01 15:20:00,
2013-05-01 11:25:00,60.0,48.2,30.45,SE,142,4.0,9.0,65,0.00,,,0.00,Wunderground v.1.15,2013-05-01 15:25:00,
2013-05-01 11:30:00,60.2,48.4,30.45,SSE,157,8.0,8.0,65,0.00,,,0.00,Wunderground v.1.15,2013-05-01 15:30:00,
2013-05-01 11:35:00,60.1,48.3,30.45,SE,139,6.0,10.0,65,0.00,,,0.00,Wunderground v.1.15,2013-05-01 15:35:00,
2013-05-01 11:40:00,60.1,49.5,30.45,SE,130,6.0,8.0,68,0.00,,,0.00,Wunderground v.1.15,2013-05-01 15:40:00,
2013-05-01 11:45:00,60.1,49.5,30.44,South,169,6.0,10.0,68,0.00,,,0.00,Wunderground v.1.15,2013-05-01 15:45:00,
2013-05-01 11:50:00,60.1,50.3,30.44,South,188,2.0,5.0,70,0.00,,,0.00,Wunderground v.1.15,2013-05-01 15:50:00,
2013-05-01 11:55:00,60.5,49.5,30.45,SE,133,6.0,8.0,67,0.00,,,0.00,Wunderground v.1.15,2013-05-01 15:55:00,
2013-05-01 12:00:00,60.5,49.9,30.45,SE,136,9.0,10.0,68,0.00,,,0.00,Wunderground v.1.15,2013-05-01 16:00:00,
2013-05-01 12:05:00,60.7,49.7,30.45,SE,133,2.0,10.0,67,0.00,,,0.00,Wunderground v.1.15,2013-05-01 16:05:00,
2013-05-01 12:10:00,60.8,50.2,30.44,SSE,153,7.0,9.0,68,0.00,,,0.00,Wunderground v.1.15,2013-05-01 16:10:00,
2013-05-01 12:15:00,60.5,49.5,30.44,SE,136,5.0,9.0,67,0.00,,,0.00,Wunderground v.1.15,2013-05-01 16:15:00,
2013-05-01 12:20:00,60.2,50.0,30.44,SE,146,4.0,6.0,69,0.00,,,0.00,Wunderground v.1.15,2013-05-01 16:20:00,
2013-05-01 12:25:00,60.2,50.0,30.44,South,169,2.0,8.0,69,0.00,,,0.00,Wunderground v.1.15,2013-05-01 16:25:00,
2013-05-01 12:30:00,60.8,50.2,30.44,SE,140,7.0,7.0,68,0.00,,,0.00,Wunderground v.1.15,2013-05-01 16:30:00,
2013-05-01 12:35:00,60.9,49.9,30.44,SSE,148,3.0,10.0,67,0.00,,,0.00,Wunderground v.1.15,2013-05-01 16:35:00,
2013-05-01 12:40:00,60.8,49.4,30.44,ESE,102,2.0,7.0,66,0.00,,,0.00,Wunderground v.1.15,2013-05-01 16:40:00,
2013-05-01 12:45:00,60.9,49.9,30.44,ESE,123,5.0,11.0,67,0.00,,,0.00,Wunderground v.1.15,2013-05-01 16:45:00,
2013-05-01 12:50:00,60.7,50.5,30.44,SE,146,7.0,7.0,69,0.00,,,0.00,Wunderground v.1.15,2013-05-01 16:50:00,
2013-05-01 12:55:00,60.7,49.3,30.44,SE,139,4.0,9.0,66,0.00,,,0.00,Wunderground v.1.15,2013-05-01 16:55:00,
2013-05-01 13:00:00,60.7,49.7,30.44,SSE,156,3.0,5.0,67,0.00,,,0.00,Wunderground v.1.15,2013-05-01 17:00:00,
2013-05-01 13:05:00,60.8,50.2,30.44,SE,145,5.0,8.0,68,0.00,,,0.00,Wunderground v.1.15,2013-05-01 17:05:00,
2013-05-01 13:10:00,60.8,49.8,30.44,SE,142,4.0,6.0,67,0.00,,,0.00,Wunderground v.1.15,2013-05-01 17:10:00,
2013-05-01 13:15:00,60.7,49.7,30.44,SSW,201,6.0,9.0,67,0.00,,,0.00,Wunderground v.1.15,2013-05-01 17:15:00,
2013-05-01 13:20:00,60.7,50.1,30.44,SSE,162,6.0,7.0,68,0.00,,,0.00,Wunderground v.1.15,2013-05-01 17:20:00,
2013-05-01 13:25:00,60.7,50.1,30.44,SE,126,2.0,9.0,68,0.00,,,0.00,Wunderground v.1.15,2013-05-01 17:25:00,
2013-05-01 13:30:00,60.7,49.3,30.44,ESE,109,3.0,5.0,66,0.00,,,0.00,Wunderground v.1.15,2013-05-01 17:30:00,
2013-05-01 13:35:00,60.7,49.7,30.44,South,180,1.0,9.0,67,0.00,,,0.00,Wunderground v.1.15,2013-05-01 17:35:00,
2013-05-01 13:40:00,60.8,50.2,30.44,SE,140,4.0,7.0,68,0.00,,,0.00,Wunderground v.1.15,2013-05-01 17:40:00,
2013-05-01 13:45:00,60.8,50.2,30.43,ESE,123,4.0,11.0,68,0.00,,,0.00,Wunderground v.1.15,2013-05-01 17:45:00,
2013-05-01 13:50:00,60.7,50.1,30.43,South,173,4.0,8.0,68,0.00,,,0.00,Wunderground v.1.15,2013-05-01 17:50:00,
2013-05-01 13:55:00,60.7,49.7,30.43,ESE,123,4.0,8.0,67,0.00,,,0.00,Wunderground v.1.15,2013-05-01 17:55:00,
2013-05-01 14:00:00,60.7,49.7,30.43,SE,144,4.0,8.0,67,0.00,,,0.00,Wunderground v.1.15,2013-05-01 18:00:00,
2013-05-01 14:05:00,60.8,49.8,30.44,SSE,158,6.0,8.0,67,0.00,,,0.00,Wunderground v.1.15,2013-05-01 18:05:00,
2013-05-01 14:11:00,61.0,50.0,30.44,SSE,147,7.0,8.0,67,0.00,,,0.00,Wunderground v.1.15,2013-05-01 18:11:00,
2013-05-01 14:16:00,61.2,50.6,30.44,South,174,5.0,9.0,68,0.00,,,0.00,Wunderground v.1.15,2013-05-01 18:16:00,
2013-05-01 14:21:00,61.1,50.1,30.44,South,170,4.0,6.0,67,0.00,,,0.00,Wunderground v.1.15,2013-05-01 18:21:00,
2013-05-01 14:26:00,60.8,50.2,30.44,SSE,149,3.0,9.0,68,0.00,,,0.00,Wunderground v.1.15,2013-05-01 18:26:00,
2013-05-01 14:31:00,60.7,49.7,30.44,SSE,164,4.0,6.0,67,0.00,,,0.00,Wunderground v.1.15,2013-05-01 18:31:00,
2013-05-01 14:36:00,60.6,50.0,30.44,SE,132,5.0,9.0,68,0.00,,,0.00,Wunderground v.1.15,2013-05-01 18:36:00,
2013-05-01 14:41:00,60.3,49.7,30.44,SSE,148,6.0,7.0,68,0.00,,,0.00,Wunderground v.1.15,2013-05-01 18:41:00,
2013-05-01 14:46:00,60.3,50.1,30.44,SE,140,5.0,7.0,69,0.00,,,0.00,Wunderground v.1.15,2013-05-01 18:46:00,
2013-05-01 14:51:00,60.3,50.1,30.44,SE,141,2.0,9.0,69,0.00,,,0.00,Wunderground v.1.15,2013-05-01 18:51:00,
2013-05-01 14:56:00,60.4,49.8,30.44,SSE,148,5.0,9.0,68,0.00,,,0.00,Wunderground v.1.15,2013-05-01 18:56:00,
2013-05-01 15:01:00,60.4,50.2,30.44,SE,126,4.0,7.0,69,0.00,,,0.00,Wunderground v.1.15,2013-05-01 19:01:00,
2013-05-01 15:06:00,60.3,50.1,30.43,SE,136,7.0,11.0,69,0.00,,,0.00,Wunderground v.1.15,2013-05-01 19:06:00,
2013-05-01 15:11:00,59.9,49.7,30.44,SE,128,1.0,5.0,69,0.00,,,0.00,Wunderground v.1.15,2013-05-01 19:11:00,
2013-05-01 15:16:00,59.9,50.1,30.43,SE,142,7.0,12.0,70,0.00,,,0.00,Wunderground v.1.15,2013-05-01 19:16:00,
2013-05-01 15:21:00,59.7,50.3,30.43,SE,132,4.0,6.0,71,0.00,,,0.00,Wunderground v.1.15,2013-05-01 19:21:00,
2013-05-01 15:26:00,59.9,50.1,30.43,SE,146,9.0,9.0,70,0.00,,,0.00,Wunderground v.1.15,2013-05-01 19:26:00,
2013-05-01 15:31:00,59.8,50.0,30.44,SE,139,4.0,10.0,70,0.00,,,0.00,Wunderground v.1.15,2013-05-01 19:31:00,
2013-05-01 15:36:00,59.6,50.2,30.43,SSE,162,5.0,10.0,71,0.00,,,0.00,Wunderground v.1.15,2013-05-01 19:36:00,
2013-05-01 15:41:00,59.1,49.7,30.43,SE,140,7.0,9.0,71,0.00,,,0.00,Wunderground v.1.15,2013-05-01 19:41:00,
2013-05-01 15:46:00,58.8,49.8,30.43,SSE,149,8.0,11.0,72,0.00,,,0.00,Wunderground v.1.15,2013-05-01 19:46:00,
2013-05-01 15:51:00,58.6,49.6,30.43,SSE,167,5.0,6.0,72,0.00,,,0.00,Wunderground v.1.15,2013-05-01 19:51:00,
2013-05-01 15:56:00,58.6,49.6,30.43,SE,126,8.0,12.0,72,0.00,,,0.00,Wunderground v.1.15,2013-05-01 19:56:00,
2013-05-01 16:01:00,58.2,48.8,30.43,ESE,118,6.0,8.0,71,0.00,,,0.00,Wunderground v.1.15,2013-05-01 20:01:00,
2013-05-01 16:06:00,58.0,49.0,30.43,South,177,5.0,10.0,72,0.00,,,0.00,Wunderground v.1.15,2013-05-01 20:06:00,
2013-05-01 16:11:00,57.9,49.3,30.44,SE,136,4.0,7.0,73,0.00,,,0.00,Wunderground v.1.15,2013-05-01 20:11:00,
2013-05-01 16:16:00,58.0,49.0,30.44,SE,140,7.0,8.0,72,0.00,,,0.00,Wunderground v.1.15,2013-05-01 20:16:00,
2013-05-01 16:21:00,58.2,48.8,30.43,SE,133,3.0,5.0,71,0.00,,,0.00,Wunderground v.1.15,2013-05-01 20:21:00,
2013-05-01 16:26:00,58.1,48.7,30.43,SE,136,5.0,9.0,71,0.00,,,0.00,Wunderground v.1.15,2013-05-01 20:26:00,
2013-05-01 16:31:00,58.0,49.0,30.43,SSE,150,2.0,6.0,72,0.00,,,0.00,Wunderground v.1.15,2013-05-01 20:31:00,
2013-05-01 16:36:00,57.9,48.9,30.43,SSE,154,4.0,9.0,72,0.00,,,0.00,Wunderground v.1.15,2013-05-01 20:36:00,
2013-05-01 16:41:00,57.9,49.3,30.43,SE,124,4.0,7.0,73,0.00,,,0.00,Wunderground v.1.15,2013-05-01 20:41:00,
2013-05-01 16:46:00,58.0,49.4,30.44,SE,133,3.0,7.0,73,0.00,,,0.00,Wunderground v.1.15,2013-05-01 20:46:00,
2013-05-01 16:51:00,57.6,48.6,30.44,SSE,155,4.0,6.0,72,0.00,,,0.00,Wunderground v.1.15,2013-05-01 20:51:00,
2013-05-01 16:56:00,57.3,49.1,30.44,SE,138,2.0,6.0,74,0.00,,,0.00,Wunderground v.1.15,2013-05-01 20:56:00,
2013-05-01 17:01:00,57.0,48.8,30.44,ESE,114,2.0,4.0,74,0.00,,,0.00,Wunderground v.1.15,2013-05-01 21:01:00,
2013-05-01 17:06:00,56.9,48.7,30.44,South,169,6.0,9.0,74,0.00,,,0.00,Wunderground v.1.15,2013-05-01 21:06:00,
2013-05-01 17:11:00,56.7,48.5,30.44,SE,146,3.0,6.0,74,0.00,,,0.00,Wunderground v.1.15,2013-05-01 21:11:00,
2013-05-01 17:16:00,56.7,48.9,30.44,SE,146,3.0,6.0,75,0.00,,,0.00,Wunderground v.1.15,2013-05-01 21:16:00,
2013-05-01 17:21:00,57.1,48.9,30.43,SSE,162,4.0,7.0,74,0.00,,,0.00,Wunderground v.1.15,2013-05-01 21:21:00,
2013-05-01 17:26:00,57.2,49.0,30.44,South,169,4.0,8.0,74,0.00,,,0.00,Wunderground v.1.15,2013-05-01 21:26:00,
2013-05-01 17:31:00,57.5,48.5,30.44,SSE,149,3.0,6.0,72,0.00,,,0.00,Wunderground v.1.15,2013-05-01 21:31:00,
2013-05-01 17:36:00,57.5,48.2,30.44,South,184,5.0,6.0,71,0.00,,,0.00,Wunderground v.1.15,2013-05-01 21:36:00,
2013-05-01 17:41:00,57.5,48.2,30.45,SSW,204,2.0,4.0,71,0.00,,,0.00,Wunderground v.1.15,2013-05-01 21:41:00,
2013-05-01 17:46:00,57.5,47.8,30.45,SE,145,6.0,8.0,70,0.00,,,0.00,Wunderground v.1.15,2013-05-01 21:46:00,
2013-05-01 17:51:00,57.2,47.5,30.44,SE,136,6.0,7.0,70,0.00,,,0.00,Wunderground v.1.15,2013-05-01 21:51:00,
2013-05-01 17:56:00,57.0,47.3,30.44,SE,138,2.0,7.0,70,0.00,,,0.00,Wunderground v.1.15,2013-05-01 21:56:00,
2013-05-01 18:01:00,56.8,46.7,30.44,SE,136,6.0,7.0,69,0.00,,,0.00,Wunderground v.1.15,2013-05-01 22:01:00,
2013-05-01 18:06:00,56.4,46.4,30.44,SE,126,5.0,7.0,69,0.00,,,0.00,Wunderground v.1.15,2013-05-01 22:06:00,
2013-05-01 18:11:00,56.2,46.2,30.44,ESE,121,2.0,5.0,69,0.00,,,0.00,Wunderground v.1.15,2013-05-01 22:11:00,
2013-05-01 18:17:00,56.0,46.4,30.44,SSE,153,2.0,7.0,70,0.00,,,0.00,Wunderground v.1.15,2013-05-01 22:17:00,
2013-05-01 18:22:00,55.9,46.3,30.44,East,94,0.0,5.0,70,0.00,,,0.00,Wunderground v.1.15,2013-05-01 22:22:00,
2013-05-01 18:27:00,55.8,46.2,30.44,SSE,158,3.0,5.0,70,0.00,,,0.00,Wunderground v.1.15,2013-05-01 22:27:00,
2013-05-01 18:32:00,55.7,46.4,30.44,SSE,166,2.0,4.0,71,0.00,,,0.00,Wunderground v.1.15,2013-05-01 22:32:00,
2013-05-01 18:37:00,55.7,46.1,30.44,SE,134,3.0,6.0,70,0.00,,,0.00,Wunderground v.1.15,2013-05-01 22:37:00,
2013-05-01 18:42:00,55.7,46.4,30.44,SE,134,0.0,2.0,71,0.00,,,0.00,Wunderground v.1.15,2013-05-01 22:42:00,
2013-05-01 18:47:00,55.6,46.3,30.45,SE,134,1.0,2.0,71,0.00,,,0.00,Wunderground v.1.15,2013-05-01 22:47:00,
2013-05-01 18:52:00,55.5,46.2,30.45,SE,134,1.0,3.0,71,0.00,,,0.00,Wunderground v.1.15,2013-05-01 22:52:00,
2013-05-01 18:57:00,55.4,46.2,30.45,SE,135,1.0,4.0,71,0.00,,,0.00,Wunderground v.1.15,2013-05-01 22:57:00,
2013-05-01 19:02:00,55.2,46.3,30.45,SE,136,1.0,3.0,72,0.00,,,0.00,Wunderground v.1.15,2013-05-01 23:02:00,
2013-05-01 19:07:00,55.1,46.2,30.45,SE,135,2.0,3.0,72,0.00,,,0.00,Wunderground v.1.15,2013-05-01 23:07:00,
2013-05-01 19:12:00,54.9,46.4,30.45,SE,136,0.0,3.0,73,0.00,,,0.00,Wunderground v.1.15,2013-05-01 23:12:00,
2013-05-01 19:17:00,54.8,46.3,30.45,SE,136,0.0,3.0,73,0.00,,,0.00,Wunderground v.1.15,2013-05-01 23:17:00,
2013-05-01 19:22:00,54.6,46.1,30.45,SE,136,0.0,1.0,73,0.00,,,0.00,Wunderground v.1.15,2013-05-01 23:22:00,
2013-05-01 19:27:00,54.5,46.4,30.45,SE,136,0.0,1.0,74,0.00,,,0.00,Wunderground v.1.15,2013-05-01 23:27:00,
2013-05-01 19:32:00,54.3,46.5,30.45,SE,136,0.0,0.0,75,0.00,,,0.00,Wunderground v.1.15,2013-05-01 23:32:00,
2013-05-01 19:37:00,54.1,46.0,30.45,SE,136,0.0,0.0,74,0.00,,,0.00,Wunderground v.1.15,2013-05-01 23:37:00,
2013-05-01 19:42:00,53.9,46.2,30.45,SE,135,0.0,0.0,75,0.00,,,0.00,Wunderground v.1.15,2013-05-01 23:42:00,
2013-05-01 19:47:00,53.7,46.0,30.45,SE,135,0.0,0.0,75,0.00,,,0.00,Wunderground v.1.15,2013-05-01 23:47:00,
2013-05-01 19:52:00,53.5,46.1,30.46,SE,136,0.0,0.0,76,0.00,,,0.00,Wunderground v.1.15,2013-05-01 23:52:00,
2013-05-01 19:57:00,53.2,45.8,30.46,SE,136,0.0,0.0,76,0.00,,,0.00,Wunderground v.1.15,2013-05-01 23:57:00,
2013-05-01 20:02:00,52.8,45.4,30.46,SE,135,0.0,0.0,76,0.00,,,0.00,Wunderground v.1.15,2013-05-02 00:02:00,
2013-05-01 20:07:00,52.6,45.6,30.47,SE,136,0.0,0.0,77,0.00,,,0.00,Wunderground v.1.15,2013-05-02 00:07:00,
2013-05-01 20:12:00,52.3,45.6,30.47,SE,135,0.0,0.0,78,0.00,,,0.00,Wunderground v.1.15,2013-05-02 00:12:00,
2013-05-01 20:17:00,52.0,45.4,30.47,SE,135,0.0,0.0,78,0.00,,,0.00,Wunderground v.1.15,2013-05-02 00:17:00,
2013-05-01 20:22:00,51.7,45.1,30.47,SE,135,0.0,0.0,78,0.00,,,0.00,Wunderground v.1.15,2013-05-02 00:22:00,
2013-05-01 20:27:00,51.3,45.0,30.47,SE,136,0.0,0.0,79,0.00,,,0.00,Wunderground v.1.15,2013-05-02 00:27:00,
2013-05-01 20:32:00,50.9,44.9,30.47,SE,136,0.0,0.0,80,0.00,,,0.00,Wunderground v.1.15,2013-05-02 00:32:00,
2013-05-01 20:37:00,50.6,44.7,30.47,SE,136,0.0,0.0,80,0.00,,,0.00,Wunderground v.1.15,2013-05-02 00:37:00,
2013-05-01 20:42:00,50.3,44.4,30.47,SE,136,0.0,0.0,80,0.00,,,0.00,Wunderground v.1.15,2013-05-02 00:42:00,
2013-05-01 20:47:00,50.0,44.4,30.47,SE,136,0.0,0.0,81,0.00,,,0.00,Wunderground v.1.15,2013-05-02 00:47:00,
2013-05-01 20:52:00,49.7,44.1,30.47,SE,136,0.0,0.0,81,0.00,,,0.00,Wunderground v.1.15,2013-05-02 00:52:00,
2013-05-01 20:57:00,49.4,44.1,30.47,SE,135,0.0,0.0,82,0.00,,,0.00,Wunderground v.1.15,2013-05-02 00:57:00,
2013-05-01 21:02:00,49.2,44.3,30.47,SE,136,0.0,0.0,83,0.00,,,0.00,Wunderground v.1.15,2013-05-02 01:02:00,
2013-05-01 21:07:00,48.9,44.0,30.47,SE,136,0.0,0.0,83,0.00,,,0.00,Wunderground v.1.15,2013-05-02 01:07:00,
2013-05-01 21:12:00,48.7,43.8,30.47,SE,135,0.0,0.0,83,0.00,,,0.00,Wunderground v.1.15,2013-05-02 01:12:00,
2013-05-01 21:17:00,48.4,43.5,30.48,SE,136,0.0,0.0,83,0.00,,,0.00,Wunderground v.1.15,2013-05-02 01:17:00,
2013-05-01 21:22:00,48.1,43.5,30.48,SE,136,0.0,0.0,84,0.00,,,0.00,Wunderground v.1.15,2013-05-02 01:22:00,
2013-05-01 21:27:00,47.9,43.6,30.48,SE,135,0.0,0.0,85,0.00,,,0.00,Wunderground v.1.15,2013-05-02 01:27:00,
2013-05-01 21:32:00,47.7,43.4,30.48,SE,135,0.0,0.0,85,0.00,,,0.00,Wunderground v.1.15,2013-05-02 01:32:00,
2013-05-01 21:37:00,47.4,43.1,30.48,SE,135,0.0,0.0,85,0.00,,,0.00,Wunderground v.1.15,2013-05-02 01:37:00,
2013-05-01 21:42:00,47.2,42.9,30.48,SE,136,0.0,0.0,85,0.00,,,0.00,Wunderground v.1.15,2013-05-02 01:42:00,
2013-05-01 21:47:00,47.0,42.7,30.48,SE,135,0.0,0.0,85,0.00,,,0.00,Wunderground v.1.15,2013-05-02 01:47:00,
2013-05-01 21:52:00,46.8,42.8,30.48,SE,136,0.0,0.0,86,0.00,,,0.00,Wunderground v.1.15,2013-05-02 01:52:00,
2013-05-01 21:57:00,46.7,42.7,30.48,SE,136,0.0,0.0,86,0.00,,,0.00,Wunderground v.1.15,2013-05-02 01:57:00,
2013-05-01 22:02:00,46.5,42.5,30.48,SE,136,0.0,0.0,86,0.00,,,0.00,Wunderground v.1.15,2013-05-02 02:02:00,
2013-05-01 22:07:00,46.3,42.6,30.47,SE,136,0.0,0.0,87,0.00,,,0.00,Wunderground v.1.15,2013-05-02 02:07:00,
2013-05-01 22:12:00,46.1,42.4,30.47,SE,136,0.0,0.0,87,0.00,,,0.00,Wunderground v.1.15,2013-05-02 02:12:00,
2013-05-01 22:17:00,46.0,42.3,30.47,SE,136,0.0,0.0,87,0.00,,,0.00,Wunderground v.1.15,2013-05-02 02:17:00,
2013-05-01 22:22:00,45.8,42.2,30.47,SE,136,0.0,0.0,87,0.00,,,0.00,Wunderground v.1.15,2013-05-02 02:22:00,
2013-05-01 22:27:00,45.6,42.3,30.47,SE,136,0.0,0.0,88,0.00,,,0.00,Wunderground v.1.15,2013-05-02 02:27:00,
2013-05-01 22:32:00,45.5,42.2,30.46,SE,135,0.0,0.0,88,0.00,,,0.00,Wunderground v.1.15,2013-05-02 02:32:00,
2013-05-01 22:37:00,45.4,42.3,30.47,SE,135,0.0,0.0,89,0.00,,,0.00,Wunderground v.1.15,2013-05-02 02:37:00,
2013-05-01 22:42:00,45.3,42.2,30.47,SE,136,0.0,0.0,89,0.00,,,0.00,Wunderground v.1.15,2013-05-02 02:42:00,
2013-05-01 22:47:00,45.2,42.2,30.47,SE,135,0.0,0.0,89,0.00,,,0.00,Wunderground v.1.15,2013-05-02 02:47:00,
2013-05-01 22:53:00,45.0,42.0,30.47,SE,136,0.0,0.0,89,0.00,,,0.00,Wunderground v.1.15,2013-05-02 02:53:00,
2013-05-01 22:58:00,44.9,41.9,30.46,SE,136,0.0,0.0,89,0.00,,,0.00,Wunderground v.1.15,2013-05-02 02:58:00,
2013-05-01 23:03:00,44.8,41.8,30.46,SE,135,0.0,0.0,89,0.00,,,0.00,Wunderground v.1.15,2013-05-02 03:03:00,
2013-05-01 23:08:00,44.7,41.9,30.45,SE,136,0.0,0.0,90,0.00,,,0.00,Wunderground v.1.15,2013-05-02 03:08:00,
2013-05-01 23:13:00,44.7,42.2,30.45,SE,136,0.0,0.0,91,0.00,,,0.00,Wunderground v.1.15,2013-05-02 03:13:00,
2013-05-01 23:18:00,44.6,41.8,30.45,SE,136,0.0,0.0,90,0.00,,,0.00,Wunderground v.1.15,2013-05-02 03:18:00,
2013-05-01 23:23:00,44.4,41.7,30.46,SE,135,0.0,0.0,90,0.00,,,0.00,Wunderground v.1.15,2013-05-02 03:23:00,
2013-05-01 23:28:00,44.3,41.6,30.46,SE,136,0.0,0.0,90,0.00,,,0.00,Wunderground v.1.15,2013-05-02 03:28:00,
2013-05-01 23:33:00,44.2,41.5,30.45,SE,135,0.0,0.0,90,0.00,,,0.00,Wunderground v.1.15,2013-05-02 03:33:00,
2013-05-01 23:38:00,44.1,41.6,30.45,SE,136,0.0,0.0,91,0.00,,,0.00,Wunderground v.1.15,2013-05-02 03:38:00,
2013-05-01 23:43:00,44.0,41.5,30.45,SE,135,0.0,0.0,91,0.00,,,0.00,Wunderground v.1.15,2013-05-02 03:43:00,
2013-05-01 23:48:00,43.9,41.4,30.45,SE,136,0.0,0.0,91,0.00,,,0.00,Wunderground v.1.15,2013-05-02 03:48:00,
2013-05-01 23:53:00,43.9,41.7,30.45,SE,136,0.0,0.0,92,0.00,,,0.00,Wunderground v.1.15,2013-05-02 03:53:00,
2013-05-01 23:58:00,43.9,41.7,30.45,SE,135,0.0,0.0,92,0.00,,,0.00,Wunderground v.1.15,2013-05-02 03:58:00,